Regional Weather Roundup
Issued by NWS

Home | Current Version | Previous Version | Text Only | Print | Product List | Glossary On
Versions: 1 2 3 4 5 6 7 8 9 10 11 12 13 14 15 16 17 18 19 20 21 22 23 24 25 26 27 28 29 30 31 32 33 34 35 36 37 38 39 40 41 42 43 44 45 46 47 48 49 50
000
ASUS43 KLOT 290809
RWRIL

ILLINOIS REGIONAL WEATHER ROUNDUP
NATIONAL WEATHER SERVICE CHICAGO/ROMEOVILLE IL
300 AM CDT THU JUN 29 2017

NOTE: "FAIR" INDICATES FEW OR NO CLOUDS BELOW 12,000 FEET WITH NO
SIGNIFICANT WEATHER AND/OR OBSTRUCTIONS TO VISIBILITY.

* THESE STATIONS ARE NOT UNDER NWS QUALITY CONTROL. THEY ALSO MAY NOT
  REPORT WEATHER SUCH AS PRECIPITATION OR FOG.

ILZ001-002-007-009-015-016-024-290900-
NORTHWEST ILLINOIS

CITY           SKY/WX    TMP DP  RH WIND       PRES   REMARKS
MOLINE         CLOUDY    73  60  63 SW7       29.73S
STERLING*      CLOUDY    74  60  61 SW12      29.72F
SAVANNA*       CLOUDY    74  64  69 SW17G23   29.70F
$$

ILZ003-004-008-010-011-017-018-290900-
NORTH CENTRAL ILLINOIS

CITY           SKY/WX    TMP DP  RH WIND       PRES   REMARKS
ROCKFORD       CLOUDY    69  65  86 S7        29.71F
FREEPORT*      MOCLDY    69  64  84 SW12      29.71F
ROCHELLE*      CLOUDY    70  63  77 S9        29.72F
DE KALB*       CLOUDY    68  64  86 S8        29.73F
PERU*          CLOUDY    71  62  72 NW13      29.74R
$$

ILZ005-006-012>014-019>023-290900-
NORTHEAST ILLINOIS

CITY           SKY/WX    TMP DP  RH WIND       PRES   REMARKS
CHICAGO-OHARE  CLOUDY    68  64  87 S10       29.74F
CHICAGO-MIDWAY MOCLDY    73  64  73 S9        29.76F
AURORA         CLOUDY    70  65  84 SE7       29.74F
LANSING*       CLOUDY    73  62  67 S10G16    29.79F
JOLIET*        MOCLDY    76  65  70 S3        29.76F
WAUKEGAN       CLOUDY    67  65  93 E9        29.75F
DUPAGE AIRPORT CLOUDY    71  65  81 S13       29.73F
WHEELING       CLOUDY    67  66  97 S8        29.75F
MORRIS*        CLOUDY    75  64  68 SW9       29.74F
ROMEOVILLE*    CLOUDY    72  62  72 S7        29.76F
$$

LMZ740>746-290900-
SOUTHERN LAKE MICHIGAN

STATION/POSITION SKY/WX   TEMP    WIND        PRES    VSBY  WAVE
                          AIR SEA DIR/SP/G                  HT/PER
                          (F)     (DEG/KT/KT) (MB)    (MI)  (FT/S)
SOUTHERN BUOY              62 60  160/ 19/ 23 1008.1          3/ 5
WILMETTE HARBOR            64 61  150/ 14/ 16   N/A           2/ 2
HARRISON CRIB              66     140/ 18/ 21   N/A
BURNHAM HARBOR             65                   N/A
CALUMET HARBOR             72     160/  5/  7 1008.0F
BURNS HARBOR               73     180/  7/ 12 1009.8F
MICHIGAN CITY              67     130/  8/  9   N/A
MICHIGAN CITY 6N           67 65  150/ 10/ 12   N/A           1/ 2
ST. JOSEPH                 66 67  140/ 16/ 17 1009.0          2/ 4
$$

ILZ025>027-034>036-040-047-049-050-058-095>099-290900-
WEST-CENTRAL ILLINOIS

CITY           SKY/WX    TMP DP  RH WIND       PRES   REMARKS
QUINCY         LGT RAIN  66  64  93 S12       29.89F
GALESBURG*     CLOUDY    69  59  71 SW9       29.78R
MACOMB*        CLOUDY    66  61  83 S20G29    29.78R
JACKSONVILLE*  MOCLDY    71  59  66 SW9       29.90F
PITTSFIELD*    LGT RAIN  67  64  90 S7        29.92F
$$

ILZ028>032-037-038-041>044-048-051>054-059>061-290900-
CENTRAL ILLINOIS

CITY           SKY/WX    TMP DP  RH WIND       PRES   REMARKS
PONTIAC        LGT RAIN  77  66  70 SW26G38   29.73R
BLOOMINGTON    MOCLDY    74  65  73 SW20G26   29.83F
DECATUR        CLOUDY    75  64  68 SW16G23   29.90F
PEORIA         CLOUDY    69  65  86 SW14      29.74F
LACON*         CLOUDY    73  62  68 S16G32    29.70F
LINCOLN*       CLOUDY    75  62  63 SW9       29.85F
SPRINGFIELD    CLOUDY    76  61  59 SW9       29.89F
TAYLORVILLE    CLOUDY    74  65  74 W9        29.93R
$$

ILZ033-039-045-046-055>057-062-063-290900-
EAST-CENTRAL ILLINOIS

CITY           SKY/WX    TMP DP  RH WIND       PRES   REMARKS
CHAMPAIGN      MOCLDY    74  63  68 S17       29.89F
RANTOUL*       CLOUDY    76  65  68 SW17G25   29.87F
MATTOON        PTCLDY    72  66  81 S9        29.93S
PARIS*         CLOUDY    72  65  77 S12G18    29.93F
$$

ILZ079-100>102-290900-
SOUTHWEST ILLINOIS

CITY           SKY/WX    TMP DP  RH WIND       PRES   REMARKS
ALTON          CLOUDY    73  68  84 S5        29.95S
BELLEVILLE     MOCLDY    69  65  86 S5        29.96S
CAHOKIA*       CLOUDY    73  65  75 S5        29.94S
SPARTA*        CLOUDY    72  64  77 S5        29.97R
$$

ILZ064>066-069>071-074>076-080>082-084>086-088>090-092>094-290900-
SOUTH-CENTRAL ILLINOIS

CITY           SKY/WX    TMP DP  RH WIND       PRES   REMARKS
CARBONDALE     PTCLDY    69  66  90 S6        29.97R
CAIRO*         PTCLDY    73  66  76 S6        29.97S
EFFINGHAM*     MOCLDY    73  65  78 S6        29.97S
MARION         PTCLDY    70  70 100 S3        29.98S
MT. VERNON     CLOUDY    69  65  86 S5        29.97R
CENTRALIA*     CLOUDY    72  66  80 S7        29.96S
SALEM*         CLOUDY    73  65  75 S6        29.96S
METROPOLIS*    CLEAR     72  65  81 CALM      29.99S
$$

ILZ067-068-072-073-078-083-087-091-290900-
SOUTHEAST ILLINOIS

CITY           SKY/WX    TMP DP  RH WIND       PRES   REMARKS
LAWRENCEVILLE  CLOUDY    68  65  90 S7        29.97S
FLORA*         PTCLDY    73  65  78 SW6       29.97R
FAIRFIELD*     CLOUDY    71  65  83 SW3       29.96R
HARRISBURG*    CLOUDY    71  65  83 S5        29.97F
ROBINSON*      PTCLDY    68  64  85 S8        29.96S
CARMI*         CLOUDY    69  65  87 S6        29.97S
$$

ABBREVIATIONS USED IN REMARKS
   TC - TEMPERATURE IN CELSIUS
  WCI - WIND CHILL INDEX
   HX - HEAT INDEX
  VSB - VISIBILITY
$$





USA.gov is the U.S. government's official web portal to all federal, state and local government web resources and services.